Regional Weather Roundup
Issued by NWS Sterling, VA

Home | Current Version | Previous Version | Text Only | Print | Product List | Glossary On
Versions: 1 2 3 4 5 6 7 8 9 10 11 12 13 14 15 16 17 18 19 20 21 22 23 24 25 26 27 28
000
ASUS41 KLWX 270311
RWRLWX

REGIONAL WEATHER ROUNDUP
NATIONAL WEATHER SERVICE BALTIMORE MD/WASHINGTON DC
1100 PM EDT MON JUN 26 2017

Note: "FAIR" indicates few or no clouds below 12,000 feet
with no significant weather and/or obstructions to visibility.
 TC=TEMPERATURE CELSIUS

 * =Non NWS site. Station does not report precipitation (e.g. rain,
    snow, etc.), thunder, or fog.

DCZ001-MDZ009-015-VAZ040>042-051-053>054-270400-
WASHINGTON METRO

CITY           SKY/WX    TMP DP  RH WIND       PRES   REMARKS
WASHINGTON NAT MOCLDY    75  61  61 S13       29.99S
DULLES         CLOUDY    72  53  51 SW6       30.00R
ANDREWS AFB    MOCLDY    69  57  65 S9        29.99S
FT BELVOIR     PTCLDY    72  60  66 CALM      29.99S
QUANTICO       PTCLDY    72  61  68 W3        30.00R
COLLEGE PARK*  CLOUDY    71  55  56 CALM      29.99S
LEESBURG*      CLOUDY    73  55  53 N7        30.01S
MANASSAS*      MOCLDY    67  58  72 CALM      30.00S
GAITHERSBURG*  CLOUDY    73  54  51 S7        30.00F HAZE

$$

MDZ006>007-011-014-270400-
BALTIMORE METRO

CITY           SKY/WX    TMP DP  RH WIND       PRES   REMARKS
BWI AIRPORT    PTCLDY    71  57  61 S3        29.98S
MD SCIENCE CTR   N/A     76  57  51 MISG      29.99R
MARTIN STATE   PTCLDY    75  61  60 S7        30.00S
ANNAPOLIS      MOCLDY    73  61  65 CALM      30.00R
FORT MEADE*    MOCLDY    63  59  88 CALM      30.01S

$$

MDZ012-015-019>023-270400-
MARYLAND EASTERN SHORE

CITY           SKY/WX    TMP DP  RH WIND       PRES   REMARKS
OCEAN CITY     PTCLDY    72  62  71 SW8       30.03S
SALISBURY      PTCLDY    67  59  75 CALM      30.02S
BAY BRIDGE AP* PTCLDY    75  59  57 S7        29.99S
CAMBRIDGE*     CLEAR     66  61  82 SE6       30.01S
EASTON*        CLEAR     71  57  60 S7        30.04S

$$

MDZ017>025-270400-
SOUTHERN MARYLAND

CITY           SKY/WX    TMP DP  RH WIND       PRES   REMARKS
PATUXENT RIVER PTCLDY    73  59  61 S8        30.00S
ST INIGOES     CLEAR     75  59  57 S9        30.00R
LEONARDTOWN*   CLEAR     68  61  77 CALM      30.02S

$$

MDZ003>005-270400-
NORTH CENTRAL MARYLAND

CITY           SKY/WX    TMP DP  RH WIND       PRES   REMARKS
FREDERICK*     CLOUDY    66  55  68 CALM      30.03R
HAGERSTOWN APT PTCLDY    71  49  45 W5        30.01S
WESTMINSTER*   CLOUDY    70  54  56 NW3       30.02R

$$

MDZ501>502-270400-
WESTERN MARYLAND

CITY           SKY/WX    TMP DP  RH WIND       PRES   REMARKS
OAKLAND*       NOT AVBL
CUMBERLAND*    PTCLDY    70  45  40 SW5       30.07R

$$

VAZ025>031-270400-
SHENANDOAH VALLEY

CITY           SKY/WX    TMP DP  RH WIND       PRES   REMARKS
WINCHESTER*    PTCLDY    64  46  52 W3        30.02S
FRONT ROYAL*   PTCLDY    66  50  55 CALM      30.03R
LURAY*         CLEAR     70  48  46 CALM      30.04R
NEW MARKET*    CLEAR     60  48  65 NW3       30.04R
STAUNTON*      CLEAR     60  49  65 SE3       30.08R
WAYNESBORO*    CLEAR     60  51  73 SW3       30.07R

$$

WVZ021-048>050-054>055-270400-
EASTERN WEST VIRGINIA PANHANDLE

CITY           SKY/WX    TMP DP  RH WIND       PRES   REMARKS
MARTINSBURG    CLEAR     68  47  46 CALM      30.01S
PETERSBURG*    CLEAR     60  52  74 CALM      30.07R

$$

VAZ036>039-050-270400-
CENTRAL FOOTHILLS

CITY           SKY/WX    TMP DP  RH WIND       PRES   REMARKS
CHARLOTTESVILL CLEAR     67  55  65 CALM      30.02R
CULPEPER*      CLEAR     63  58  82 CALM      30.01S
ORANGE*        CLEAR     61  54  77 CALM      30.01S
GORDONSVILLE*  CLEAR     62  57  84 CALM      30.01S
WARRENTON*     PTCLDY    60  54  80 CALM      30.00S

$$

VAZ055>057-270400-
NORTH AND CENTRAL PIEDMONT

CITY           SKY/WX    TMP DP  RH WIND       PRES   REMARKS
FREDERICKSBRG* CLEAR     67  57  69 CALM      29.99S
STAFFORD*      CLEAR     59  58  97 CALM      30.04S

$$

NCZ024-NYZ072-PAZ021-071-VAZ022-071-270400-
OTHER REGIONAL OBSERVATIONS

CITY           SKY/WX    TMP DP  RH WIND       PRES   REMARKS
NEW YORK CITY  CLEAR     73  46  38 VRB3      30.01R
PHILADELPHIA   CLEAR     71  51  49 S6        29.99F
PITTSBURGH     MOCLDY    63  49  60 SW7       30.03R
ROANOKE        PTCLDY    68  47  46 NW8       30.09R
RICHMOND       PTCLDY    69  56  62 SW5       30.01S
RALEIGH        CLOUDY    72  58  61 CALM      30.05R

$$

ANZ530>537-270400-
MARINE OBSERVATIONS

STATION/POSITION TIME  TEMP    WIND        PRES
                       AIR SEA DIR/SP/G
                 (UTC) (F)     (DEG/KT/KT) (MB)
THOMAS PT LIGHT  0300   77 77  180/ 15/ 17   N/A
BALT KEY BRIDGE  0248   75     180/ 11/ 12 1015.1R
COVE POINT       0248   76     200/ 14/ 16 1016.5S
LEWISETTA        0248   73 80  210/  8/  9 1016.0S
SOLOMONS ISLAND  0248   75 79  180/  9/ 11   N/A
PINEY POINT      0248          210/ 13/ 15   N/A

$$





USA.gov is the U.S. government's official web portal to all federal, state and local government web resources and services.